Узунагач

Kazakhstan     43˚13′01″N   76˚19′58″E
temp.,
°C
wind,
m/s
gust,
m/s
humid.,
%
clouds,
%
prec.,
mm/h
press.,
hPa
HPBL,
m
3 december, thu
thu300:00−2˚sse005486 0.0 102821
03:00−1˚ne1151100 0.0 102721
06:00−2˚sw1152100 0.0 102821
09:00nnw114997 0.0 102822
12:00+3˚nw114050 0.0 1026205
15:00+5˚wnw113859 0.0 1024285
18:00+1˚sw115753 0.0 102723
21:00sw126266 0.0 102722
4 december, fri
fri400:00wsw226675 0.0 102625
03:00−2˚wsw126998 0.0 102522
06:00−2˚sw117599 0.0 102521
09:00−2˚wsw1176100 0.0 102521
12:00+1˚n2162100 0.0 1024285
15:00+2˚ne2258100 0.0 1023433
18:00−1˚ene1286100 0.1 102568
21:00−1˚wsw1197100 0.9 102670
5 december, sat
sat500:00−2˚nw1298100 2.3 1026105
03:00−2˚ne1198100 1.2 102664
06:00−2˚ne1198100 2.7 102648
09:00−3˚nne2397100 1.4 1027206
12:00−2˚ne3395100 2.2 1026327
15:00−2˚ne4596100 0.6 1026351
18:00−4˚ne3598100 1.6 1029229
21:00−6˚ene2297100 0.6 103036
6 december, sun
sun600:00−8˚sw119495 0.6 103021
03:00−9˚wnw119498 0.0 103221
06:00−9˚wsw009492 0.1 103221
09:00−9˚nnw008983 0.0 103221
12:00−6˚ne218991 0.0 1030150
15:00−5˚ene2290100 0.0 1029202
18:00−8˚e119369 0.0 103021
21:00−9˚ese11918 0.0 102921
7 december, mon
mon700:00−7˚ese119146 0.0 102760
03:00−7˚nw119397 0.0 102636
06:00−6˚nnw119099 0.1 102538
09:00−6˚wnw1291100 0.0 102448
12:00−4˚wnw1287100 0.0 1022162
15:00−3˚w1286100 0.0 1022154
18:00−5˚wsw2284100 0.0 102521
21:00−4˚wsw1281100 0.0 102721